TimeCST,TemperatureF,Dew PointF,Humidity,Sea Level PressureIn,VisibilityMPH,Wind Direction,Wind SpeedMPH,Gust SpeedMPH,PrecipitationIn,Events,Conditions,WindDirDegrees,DateUTC
12:52 AM,48.9,48.9,100,30.02,0.2,ESE,4.6,-,N/A,Fog,Fog,120,2012-12-03 06:52:00
1:52 AM,48.9,48.9,100,30.02,0.2,ESE,4.6,-,N/A,Fog,Fog,120,2012-12-03 07:52:00
2:52 AM,50.0,50.0,100,30.00,0.2,ESE,4.6,-,N/A,Fog,Fog,120,2012-12-03 08:52:00
3:52 AM,52.0,52.0,100,29.98,0.2,SSE,6.9,-,0.01,Fog,Fog,150,2012-12-03 09:52:00
4:16 AM,53.6,53.6,100,29.96,0.2,SSE,8.1,-,N/A,Fog,Fog,150,2012-12-03 10:16:00
4:52 AM,54.0,54.0,100,29.96,0.2,SSE,8.1,-,N/A,Fog,Fog,150,2012-12-03 10:52:00
5:07 AM,53.6,53.6,100,29.95,0.5,SSE,9.2,-,N/A,Fog,Fog,160,2012-12-03 11:07:00
5:52 AM,55.9,55.9,100,29.95,0.5,SSE,11.5,-,N/A,Fog,Fog,160,2012-12-03 11:52:00
6:52 AM,57.0,57.0,100,29.94,0.5,SSE,11.5,-,N/A,Fog,Fog,160,2012-12-03 12:52:00
7:52 AM,57.9,57.9,100,29.94,0.8,South,12.7,-,0.01,,Overcast,170,2012-12-03 13:52:00
8:06 AM,57.2,57.2,100,29.93,1.0,South,12.7,-,N/A,,Overcast,180,2012-12-03 14:06:00
8:52 AM,57.9,57.9,100,29.93,1.5,South,11.5,-,N/A,,Overcast,170,2012-12-03 14:52:00
9:52 AM,60.1,60.1,100,29.91,2.5,South,11.5,-,N/A,,Overcast,180,2012-12-03 15:52:00
9:59 AM,60.8,60.8,100,29.91,3.0,South,12.7,-,N/A,,Overcast,180,2012-12-03 15:59:00
10:52 AM,63.0,60.1,90,29.89,5.0,South,12.7,-,N/A,,Overcast,180,2012-12-03 16:52:00
11:13 AM,64.4,60.8,88,29.86,6.0,South,11.5,-,N/A,,Overcast,180,2012-12-03 17:13:00
11:52 AM,66.9,60.1,79,29.83,9.0,South,13.8,29.9,N/A,,Mostly Cloudy,190,2012-12-03 17:52:00
12:24 PM,69.8,60.8,73,29.82,9.0,South,20.7,32.2,N/A,,Scattered Clouds,190,2012-12-03 18:24:00
12:52 PM,68.0,60.1,76,29.81,10.0,SSW,17.3,33.4,N/A,,Mostly Cloudy,200,2012-12-03 18:52:00
1:52 PM,70.0,60.1,71,29.78,10.0,South,21.9,27.6,N/A,,Mostly Cloudy,180,2012-12-03 19:52:00
2:14 PM,69.8,59.0,68,29.77,10.0,South,26.5,33.4,N/A,,Scattered Clouds,180,2012-12-03 20:14:00
2:24 PM,69.8,59.0,68,29.77,10.0,South,25.3,31.1,N/A,,Mostly Cloudy,190,2012-12-03 20:24:00
2:52 PM,68.0,59.0,73,29.76,10.0,South,21.9,32.2,N/A,,Mostly Cloudy,180,2012-12-03 20:52:00
3:47 PM,68.0,57.2,68,29.80,10.0,SSW,16.1,24.2,N/A,,Overcast,210,2012-12-03 21:47:00
3:52 PM,68.0,59.0,73,29.80,10.0,SSW,18.4,-,N/A,,Overcast,210,2012-12-03 21:52:00
4:52 PM,66.9,57.0,70,29.79,10.0,South,16.1,24.2,N/A,,Mostly Cloudy,190,2012-12-03 22:52:00
5:52 PM,66.0,55.9,70,29.79,10.0,South,20.7,32.2,N/A,,Clear,190,2012-12-03 23:52:00
6:52 PM,64.9,55.9,73,29.80,10.0,South,20.7,33.4,N/A,,Mostly Cloudy,190,2012-12-04 00:52:00
7:52 PM,63.0,55.9,78,29.81,10.0,SSW,20.7,29.9,N/A,,Mostly Cloudy,200,2012-12-04 01:52:00
8:52 PM,62.1,55.9,80,29.82,10.0,SSW,19.6,26.5,N/A,,Scattered Clouds,200,2012-12-04 02:52:00
9:52 PM,62.1,55.9,80,29.85,10.0,SW,20.7,27.6,0.00,Rain,Light Rain,220,2012-12-04 03:52:00
10:03 PM,62.6,57.2,82,29.86,9.0,WSW,15.0,25.3,0.00,Rain,Light Rain,240,2012-12-04 04:03:00
10:32 PM,60.8,55.4,82,29.87,9.0,WSW,9.2,-,0.00,,Overcast,240,2012-12-04 04:32:00
10:52 PM,59.0,53.1,81,29.88,9.0,West,21.9,-,0.00,,Overcast,270,2012-12-04 04:52:00
11:52 PM,54.0,48.0,80,29.91,9.0,WNW,12.7,-,N/A,,Overcast,290,2012-12-04 05:52:00